When you browse on this site, cookies collect data to enhance your experience and personalize the content and advertising you see.
Visit our Privacy Policy to learn more. By continuing to use the site, you agree to this use of cookies and data.
  • In Hungary
  • List of Countries
  • For 7 days
  • Water Temperature
  • Weather Map
  • News
  • Weather Widgets
  • user-avatar
    Login

    Hourly Weather Gorlo

    Today, 10 April, Friday

    Time Temperature Precipitation Wind Pressure Humidity
    00:00 +2°C° 0 mm 3 mps 754 mmHg 81%
    01:00 +2°C° 0 mm 3 mps 754 mmHg 83%
    02:00 +1°C° 0 mm 3 mps 754 mmHg 82%
    03:00 +2°C° 0 mm 2 mps 754 mmHg 80%
    04:00 +1°C° 0 mm 2 mps 755 mmHg 78%
    05:00 +3°C° 0 mm 2 mps 755 mmHg 72%
    06:00 +4°C° 0 mm 2 mps 755 mmHg 67%
    07:00 +5°C° 0 mm 2 mps 756 mmHg 62%
    08:00 +5°C° 0 mm 3 mps 756 mmHg 54%
    09:00 +8°C° 0 mm 3 mps 756 mmHg 47%
    10:00 +8°C° 0 mm 4 mps 756 mmHg 40%
    11:00 +10°C° 0 mm 4 mps 756 mmHg 39%
    12:00 +10°C° 0 mm 4 mps 756 mmHg 39%
    13:00 +11°C° 0 mm 4 mps 755 mmHg 38%
    14:00 +11°C° 0 mm 4 mps 755 mmHg 40%
    15:00 +10°C° 0 mm 4 mps 755 mmHg 42%
    16:00 +10°C° 0 mm 4 mps 755 mmHg 44%
    17:00 +7°C° 0 mm 4 mps 755 mmHg 49%
    18:00 +7°C° 0 mm 3 mps 755 mmHg 54%
    19:00 +4°C° 0 mm 3 mps 755 mmHg 59%
    20:00 +3°C° 0 mm 3 mps 755 mmHg 63%
    21:00 +3°C° 0 mm 2 mps 755 mmHg 66%
    22:00 +2°C° 0 mm 2 mps 755 mmHg 70%
    23:00 +2°C° 0 mm 2 mps 756 mmHg 74%

    Tomorrow, 11 April, Saturday

    Time Temperature Precipitation Wind Pressure Humidity
    00:00 +1°C° 0 mm 2 mps 756 mmHg 78%
    01:00 +1°C° 0 mm 2 mps 757 mmHg 83%
    02:00 +1°C° 0 mm 2 mps 757 mmHg 85%
    03:00 -1°C° 0 mm 2 mps 757 mmHg 87%
    04:00 -1°C° 0 mm 2 mps 757 mmHg 90%
    05:00 +1°C° 0 mm 2 mps 758 mmHg 81%
    06:00 +2°C° 0 mm 2 mps 758 mmHg 72%
    07:00 +3°C° 0 mm 2 mps 758 mmHg 63%
    08:00 +5°C° 0 mm 2 mps 759 mmHg 54%
    09:00 +7°C° 0 mm 2 mps 759 mmHg 46%
    10:00 +8°C° 0 mm 2 mps 759 mmHg 37%
    11:00 +9°C° 0 mm 2 mps 759 mmHg 35%
    12:00 +10°C° 0 mm 2 mps 759 mmHg 33%
    13:00 +11°C° 0 mm 1 mps 759 mmHg 31%
    14:00 +11°C° 0 mm 1 mps 759 mmHg 32%
    15:00 +10°C° 0 mm 2 mps 758 mmHg 33%
    16:00 +10°C° 0 mm 2 mps 758 mmHg 34%
    17:00 +10°C° 0 mm 1 mps 758 mmHg 39%
    18:00 +8°C° 0 mm 1 mps 758 mmHg 44%
    19:00 +7°C° 0 mm 1 mps 758 mmHg 50%
    20:00 +6°C° 0 mm 1 mps 758 mmHg 51%
    21:00 +5°C° 0 mm 2 mps 758 mmHg 52%
    22:00 +5°C° 0 mm 2 mps 758 mmHg 53%
    23:00 +5°C° 0 mm 2 mps 758 mmHg 54%

    Day after tomorrow, 12 April, Sunday

    Time Temperature Precipitation Wind Pressure Humidity
    00:00 +4°C° 0 mm 3 mps 757 mmHg 55%
    01:00 +3°C° 0 mm 3 mps 757 mmHg 56%
    02:00 +3°C° 0 mm 3 mps 757 mmHg 57%
    03:00 +2°C° 0 mm 3 mps 756 mmHg 58%
    04:00 +2°C° 0 mm 3 mps 756 mmHg 59%
    05:00 +3°C° 0 mm 4 mps 755 mmHg 57%
    06:00 +4°C° 0 mm 4 mps 755 mmHg 56%
    07:00 +5°C° 0 mm 4 mps 755 mmHg 54%
    08:00 +6°C° 0 mm 5 mps 754 mmHg 52%
    09:00 +8°C° 0 mm 5 mps 754 mmHg 50%
    10:00 +9°C° 0 mm 5 mps 753 mmHg 48%
    11:00 +10°C° 0 mm 5 mps 753 mmHg 47%
    12:00 +12°C° 0 mm 5 mps 752 mmHg 47%
    13:00 +13°C° 0 mm 5 mps 752 mmHg 46%
    14:00 +13°C° 0 mm 5 mps 751 mmHg 48%
    15:00 +13°C° 0 mm 4 mps 751 mmHg 50%
    16:00 +13°C° 0 mm 4 mps 750 mmHg 52%
    17:00 +12°C° 0 mm 4 mps 749 mmHg 56%
    18:00 +11°C° 0 mm 3 mps 749 mmHg 61%
    19:00 +10°C° 0 mm 3 mps 748 mmHg 66%
    20:00 +9°C° 0 mm 3 mps 748 mmHg 67%
    21:00 +9°C° 0 mm 3 mps 748 mmHg 68%
    22:00 +8°C° 0 mm 3 mps 748 mmHg 69%
    23:00 +8°C° 0 mm 3 mps 747 mmHg 69%

    13 April, Monday

    Time Temperature Precipitation Wind Pressure Humidity
    00:00 +8°C° 0 mm 3 mps 747 mmHg 70%
    01:00 +7°C° 0 mm 3 mps 746 mmHg 70%
    02:00 +7°C° 0 mm 3 mps 746 mmHg 72%
    03:00 +7°C° 0 mm 3 mps 745 mmHg 75%
    04:00 +5°C° 0 mm 3 mps 745 mmHg 77%
    05:00 +7°C° 0 mm 3 mps 744 mmHg 74%
    06:00 +8°C° 0 mm 3 mps 744 mmHg 72%
    07:00 +10°C° 0 mm 4 mps 743 mmHg 70%
    08:00 +12°C° 0 mm 4 mps 743 mmHg 65%
    09:00 +14°C° 0 mm 4 mps 742 mmHg 59%
    10:00 +15°C° 0 mm 5 mps 742 mmHg 53%
    11:00 +15°C° 0.4 mm 6 mps 741 mmHg 58%
    12:00 +14°C° 0.4 mm 6 mps 741 mmHg 62%
    13:00 +14°C° 0.4 mm 7 mps 741 mmHg 67%
    14:00 +10°C° 0.6 mm 7 mps 741 mmHg 74%
    15:00 +6°C° 0.6 mm 7 mps 741 mmHg 82%
    16:00 +3°C° 0.6 mm 7 mps 741 mmHg 89%
    17:00 +2°C° 0.1 mm 7 mps 742 mmHg 86%
    18:00 +2°C° 0.1 mm 6 mps 742 mmHg 82%
    19:00 +1°C° 0.1 mm 6 mps 743 mmHg 79%
    20:00 -1°C° 0 mm 6 mps 743 mmHg 76%
    21:00 -1°C° 0 mm 5 mps 744 mmHg 74%
    22:00 -1°C° 0 mm 5 mps 744 mmHg 71%
    23:00 -2°C° 0 mm 4 mps 744 mmHg 73%

    14 April, Tuesday

    Time Temperature Precipitation Wind Pressure Humidity
    00:00 -3°C° 0 mm 4 mps 745 mmHg 74%
    01:00 -2°C° 0 mm 3 mps 745 mmHg 75%
    02:00 -2°C° 0 mm 3 mps 745 mmHg 77%
    03:00 -2°C° 0 mm 3 mps 745 mmHg 78%
    04:00 -2°C° 0 mm 3 mps 745 mmHg 79%
    05:00 -2°C° 0 mm 4 mps 745 mmHg 71%
    06:00 -1°C° 0 mm 5 mps 746 mmHg 63%
    07:00 0°C° 0 mm 5 mps 746 mmHg 56%
    08:00 +1°C° 0.1 mm 6 mps 746 mmHg 53%
    09:00 +2°C° 0.1 mm 6 mps 747 mmHg 50%
    10:00 +2°C° 0.1 mm 7 mps 747 mmHg 48%
    11:00 +3°C° 0.1 mm 7 mps 747 mmHg 48%
    12:00 +2°C° 0.1 mm 8 mps 747 mmHg 48%
    13:00 +2°C° 0.1 mm 8 mps 747 mmHg 49%
    14:00 +1°C° 0.1 mm 8 mps 747 mmHg 52%
    15:00 +1°C° 0.1 mm 8 mps 747 mmHg 56%
    16:00 0°C° 0.1 mm 8 mps 747 mmHg 59%
    17:00 -1°C° 0 mm 7 mps 748 mmHg 62%
    18:00 -2°C° 0 mm 6 mps 748 mmHg 65%
    19:00 -2°C° 0 mm 5 mps 749 mmHg 68%
    20:00 -2°C° 0 mm 5 mps 749 mmHg 71%
    21:00 -2°C° 0 mm 5 mps 749 mmHg 74%
    22:00 -2°C° 0 mm 4 mps 749 mmHg 77%
    23:00 -2°C° 0 mm 4 mps 749 mmHg 76%

    15 April, Wednesday

    Time Temperature Precipitation Wind Pressure Humidity
    00:00 -3°C° 0 mm 4 mps 749 mmHg 75%
    01:00 -3°C° 0 mm 4 mps 750 mmHg 74%
    02:00 -2°C° 0 mm 4 mps 750 mmHg 73%
    03:00 -2°C° 0 mm 4 mps 750 mmHg 73%
    04:00 -2°C° 0 mm 4 mps 750 mmHg 73%
    05:00 -1°C° 0 mm 4 mps 750 mmHg 70%
    06:00 0°C° 0 mm 4 mps 750 mmHg 68%
    07:00 +1°C° 0 mm 5 mps 750 mmHg 66%
    08:00 +3°C° 0 mm 5 mps 750 mmHg 59%
    09:00 +5°C° 0 mm 5 mps 750 mmHg 53%
    10:00 +5°C° 0 mm 6 mps 751 mmHg 47%
    11:00 +7°C° 0 mm 6 mps 751 mmHg 46%
    12:00 +7°C° 0 mm 6 mps 751 mmHg 46%
    13:00 +8°C° 0 mm 7 mps 751 mmHg 45%
    14:00 +8°C° 0 mm 7 mps 751 mmHg 48%
    15:00 +6°C° 0 mm 7 mps 751 mmHg 50%
    16:00 +7°C° 0 mm 6 mps 751 mmHg 53%
    17:00 +4°C° 0 mm 6 mps 751 mmHg 61%
    18:00 +3°C° 0 mm 5 mps 751 mmHg 69%
    19:00 +2°C° 0 mm 5 mps 751 mmHg 77%
    20:00 +1°C° 0 mm 4 mps 751 mmHg 81%
    21:00 +1°C° 0 mm 4 mps 752 mmHg 85%
    22:00 0°C° 0 mm 4 mps 752 mmHg 89%
    23:00 0°C° 0 mm 4 mps 752 mmHg 90%
    Show more